Date,TemperatureHighF,TemperatureAvgF,TemperatureLowF,DewpointHighF,DewpointAvgF,DewpointLowF,HumidityHigh,HumidityAvg,HumidityLow,PressureMaxIn,PressureMinIn,WindSpeedMaxMPH,WindSpeedAvgMPH,GustSpeedMaxMPH,PrecipitationSumIn
2013-1-1,61.6,47.0,37.8,40.1,36.6,32.8,91,69,35,30.27,30.13,4,0,10,0.00
2013-1-2,69.6,53.3,40.5,33.1,28.0,17.5,71,41,17,30.19,30.07,6,2,15,0.00
2013-1-3,66.8,47.6,32.4,45.3,32.7,23.9,88,60,23,30.22,30.10,8,2,15,0.00
2013-1-4,67.4,44.9,30.4,42.6,33.6,23.9,95,72,20,30.30,30.18,3,0,10,0.00
2013-1-5,60.2,45.4,31.0,47.7,40.2,29.0,95,83,60,30.34,30.17,4,1,9,0.42
2013-1-6,55.1,48.6,44.5,49.9,44.7,39.5,98,87,64,30.18,30.10,7,1,17,0.36
2013-1-7,60.5,51.2,41.9,43.9,40.2,37.4,84,67,49,30.25,30.11,8,3,17,0.49
2013-1-8,68.9,55.6,42.8,41.1,38.0,35.4,85,54,31,30.15,30.05,18,3,18,0.00
2013-1-9,59.3,49.4,39.5,50.2,44.1,37.3,94,83,63,30.13,30.04,14,2,20,0.01
2013-1-10,53.3,44.8,34.6,40.5,35.6,30.3,86,71,50,30.22,30.05,24,3,24,0.00
2013-1-11,56.0,40.6,28.4,40.2,32.5,26.1,94,76,36,30.28,30.14,12,1,17,0.00
2013-1-12,55.3,43.3,37.6,37.6,32.4,20.9,92,69,27,30.26,30.14,9,1,14,0.00
2013-1-13,53.8,41.6,32.1,34.5,26.9,19.6,83,59,27,30.25,30.12,10,1,13,0.00
2013-1-14,57.2,42.3,30.6,29.3,24.2,19.9,80,52,27,30.37,30.23,10,1,12,0.00
2013-1-15,61.2,41.0,27.8,38.3,27.8,20.4,88,65,21,30.50,30.37,8,1,15,0.00
2013-1-16,67.1,43.7,28.5,42.2,34.2,26.5,94,74,25,30.42,30.20,7,1,15,0.00
2013-1-17,76.7,46.9,30.6,47.7,35.7,28.6,94,72,21,30.24,30.08,5,0,11,0.01
2013-1-18,74.0,47.2,30.7,43.7,35.7,28.7,95,70,23,30.19,30.07,5,1,11,0.00
2013-1-19,76.0,48.5,31.0,38.5,32.8,28.1,92,63,18,30.22,30.08,6,0,12,0.00
2013-1-20,76.3,49.8,30.0,37.5,32.6,27.2,91,60,18,30.18,30.03,6,1,11,0.00
2013-1-21,77.0,52.5,33.2,35.1,30.2,24.8,83,52,15,30.15,29.99,6,1,11,0.00
2013-1-22,78.5,51.0,32.2,38.1,33.5,25.7,88,58,16,30.11,30.02,3,0,9,0.00
2013-1-23,64.7,53.0,44.3,45.8,39.8,32.3,78,63,31,30.09,29.98,4,0,12,0.01
2013-1-24,64.3,55.9,51.7,62.0,53.6,45.9,97,92,76,30.12,30.04,2,0,4,0.36
2013-1-25,69.4,60.8,56.2,56.8,54.2,51.6,96,80,59,30.15,30.00,5,2,13,0.11
2013-1-26,65.8,56.6,50.1,54.8,49.7,43.7,87,78,61,30.06,29.95,15,4,19,0.00
2013-1-27,57.2,49.3,39.6,45.8,40.0,35.5,88,71,45,30.16,30.05,17,3,18,0.00
2013-1-28,57.8,45.2,33.7,45.2,37.7,31.2,93,77,42,30.29,30.16,14,2,17,0.00
2013-1-29,60.9,49.1,36.2,43.6,38.3,34.1,94,69,43,30.33,30.20,13,2,15,0.01
2013-1-30,72.8,51.1,40.8,47.9,39.2,35.5,89,67,26,30.36,30.23,11,1,15,0.00
2013-1-31,71.8,48.7,35.2,50.2,40.2,33.7,95,76,31,30.28,30.13,9,1,12,0.00
2013-2-1,75.4,47.5,34.3,51.8,41.8,32.5,95,84,27,30.22,30.12,12,1,15,0.00
2013-2-2,62.6,52.4,45.8,51.6,48.7,44.2,97,88,64,30.25,30.16,10,1,12,0.00
2013-2-3,65.2,52.2,42.3,51.9,48.1,40.4,97,87,57,30.22,30.08,14,3,20,0.01
2013-2-4,73.2,51.6,38.0,51.8,45.1,37.0,98,82,40,30.13,30.01,13,2,19,0.01
2013-2-5,53.3,49.9,44.1,49.4,46.1,41.0,95,87,75,30.13,30.05,6,1,10,0.00
2013-2-6,68.4,52.5,46.2,45.9,42.7,38.2,87,71,33,30.17,30.06,17,5,18,0.00
2013-2-7,58.9,47.3,34.7,46.4,40.9,32.8,95,80,49,30.20,30.05,12,2,15,0.01
2013-2-8,51.3,42.6,34.6,46.6,40.5,33.3,96,92,74,30.05,29.93,10,0,11,0.37
2013-2-9,58.0,41.6,30.3,45.1,35.7,27.2,97,82,31,30.13,30.04,13,1,15,0.01
2013-2-10,60.5,42.8,30.9,44.0,36.9,29.1,96,82,43,30.15,30.02,12,1,14,0.01
2013-2-11,64.0,44.5,31.5,45.3,36.6,30.0,96,78,35,30.21,30.10,10,1,13,0.00
2013-2-12,65.5,46.2,31.5,47.2,39.7,30.0,96,81,34,30.38,30.28,8,2,17,0.01
2013-2-13,69.8,50.2,36.3,49.5,41.0,35.3,97,76,30,30.32,30.16,9,2,19,0.00
2013-2-14,75.6,52.4,36.8,49.7,41.0,34.4,92,71,26,30.20,30.08,6,1,14,0.01
2013-2-15,82.8,54.9,37.5,47.5,39.1,28.5,92,63,14,30.23,30.14,7,1,15,0.00
2013-2-16,81.8,52.9,39.6,44.5,37.1,21.6,87,62,12,30.19,30.02,10,1,15,0.00
2013-2-17,62.6,48.5,36.3,49.7,42.2,31.6,89,80,60,30.05,29.95,14,2,20,0.00
2013-2-18,56.7,50.5,47.7,46.9,44.7,41.9,90,81,66,30.09,29.99,10,1,15,0.00
2013-2-19,54.4,46.3,37.0,46.0,41.2,34.0,93,83,58,30.01,29.79,15,1,19,0.28
2013-2-20,58.0,45.6,33.2,43.8,37.3,31.1,94,75,44,30.09,29.84,12,3,19,0.00
2013-2-21,61.5,45.2,33.1,43.9,37.5,31.0,96,77,40,30.19,30.05,13,2,16,0.00
2013-2-22,65.8,47.9,33.8,46.1,38.3,31.6,95,74,28,30.26,30.15,15,2,18,0.01
2013-2-23,61.0,45.5,39.8,47.0,40.9,37.4,94,85,51,30.24,30.17,10,2,15,0.00
2013-2-27,72.1,51.9,34.4,47.0,36.0,25.6,93,62,22,30.34,30.18,11,3,20,0.00
2013-2-28,76.8,54.0,37.3,48.1,40.9,34.7,96,68,23,30.41,30.30,10,3,17,0.00
2013-3-1,87.0,65.0,48.0,49.2,41.3,32.2,84,46,15,30.36,30.17,6,2,13,0.00
2013-3-2,79.0,57.3,41.1,49.5,42.2,31.0,92,65,19,30.22,30.09,7,1,14,0.00
2013-3-3,62.7,55.1,49.5,51.8,49.4,46.7,92,82,64,30.12,30.03,10,4,19,0.00
2013-3-4,65.3,52.5,46.7,49.3,46.0,43.4,90,79,53,30.14,30.04,12,3,20,0.00
2013-3-5,60.5,51.7,47.7,48.9,45.0,40.5,94,79,58,30.12,30.04,6,1,14,0.01
2013-3-6,59.9,51.5,47.6,53.9,47.0,40.9,96,85,64,30.13,30.02,9,1,12,0.27
2013-3-7,57.2,50.5,46.1,50.3,45.3,39.6,94,83,57,30.03,29.85,10,1,14,0.30
2013-3-8,55.0,49.8,44.9,48.0,44.4,41.9,96,82,68,30.09,29.83,21,4,24,0.13
2013-3-9,61.3,53.5,42.9,46.6,43.0,39.3,92,69,45,30.30,30.21,12,4,17,0.00
2013-3-10,71.1,50.8,36.9,50.0,43.3,33.5,96,79,25,30.35,30.22,15,4,19,0.00
2013-3-11,77.0,52.2,37.8,51.8,43.8,36.2,98,78,24,30.24,30.08,13,2,19,0.01
2013-3-12,74.9,55.6,40.5,53.7,46.6,38.9,96,75,36,30.13,30.03,11,2,16,0.00
2013-3-13,80.3,53.3,44.6,55.9,47.9,43.8,98,85,35,30.15,30.05,13,2,16,0.01
2013-3-14,74.2,52.9,46.5,54.1,48.6,45.7,98,87,47,30.16,30.06,15,2,16,0.00
2013-3-15,74.7,58.4,46.8,53.9,49.3,45.2,96,75,43,30.05,29.95,14,5,20,0.01
2013-3-16,77.9,56.3,48.3,53.2,49.3,45.9,99,80,36,30.03,29.96,19,6,23,0.00
2013-3-21,66.1,54.8,48.8,51.3,47.5,44.7,96,78,54,30.07,29.93,11,6,21,0.00
2013-3-22,71.5,56.8,45.2,45.9,38.0,20.1,83,53,18,30.02,29.93,11,4,21,0.00
2013-3-23,77.4,57.5,43.6,45.7,31.3,16.3,86,43,13,30.07,29.97,10,4,19,0.00
2013-3-24,74.7,54.1,38.5,46.9,41.1,25.6,92,68,17,30.06,29.93,11,3,21,0.00
2013-3-25,70.3,53.2,44.5,51.8,47.0,41.8,96,81,43,30.02,29.92,9,2,15,0.00
2013-3-26,66.0,52.8,44.9,49.3,46.3,42.7,94,80,51,30.02,29.93,8,2,16,0.00
2013-3-27,68.8,55.1,45.1,52.5,49.0,42.5,92,81,54,30.08,29.97,9,2,17,0.01
2013-3-28,66.9,56.8,48.6,54.3,51.1,46.7,93,82,61,30.09,30.03,14,2,17,0.00
2013-3-29,69.4,54.4,46.4,53.7,49.7,44.8,97,86,55,30.11,30.05,13,1,14,0.00
2013-3-30,69.8,58.8,51.3,53.6,51.1,49.4,96,78,50,30.14,30.04,12,2,17,0.00
2013-4-22,68.4,56.9,48.5,54.0,49.5,43.0,93,77,59,29.99,29.90,7,2,16,0.00
2013-4-23,73.7,57.7,51.1,54.5,51.1,48.6,94,80,50,29.99,29.88,7,2,15,0.00
2013-4-24,59.8,56.1,52.8,52.8,50.4,47.8,92,82,69,29.99,29.89,4,1,13,0.00
2013-4-25,73.9,60.6,51.4,50.9,49.0,46.9,86,67,39,30.13,29.99,9,2,18,0.00
2013-4-26,68.4,56.1,47.4,53.4,49.2,44.2,95,79,57,30.21,30.12,11,4,21,0.00
2013-4-27,64.3,55.1,49.2,52.2,49.6,47.6,97,83,63,30.20,30.07,11,4,21,0.00
2013-4-28,68.6,55.4,48.0,54.5,49.5,46.3,97,82,56,30.08,29.89,13,3,18,0.24
2013-4-29,69.1,56.2,48.0,54.8,50.6,45.5,96,83,59,29.92,29.79,10,1,13,0.00
2013-4-30,69.3,56.9,51.7,54.8,51.4,49.4,94,83,58,29.90,29.82,9,2,18,0.00
2013-5-1,74.4,60.4,52.6,55.4,51.7,48.6,92,75,50,30.07,29.90,11,2,14,0.00
2013-5-2,83.8,61.9,45.5,56.1,47.7,42.0,94,65,27,30.13,30.07,12,1,15,0.00
2013-5-3,96.3,66.4,48.9,49.5,43.1,32.8,80,51,11,30.08,29.77,19,3,21,0.00
2013-5-4,72.5,57.2,48.3,54.3,50.2,44.6,96,79,45,29.81,29.72,13,2,17,0.00
2013-5-5,65.8,58.4,54.2,52.9,50.9,48.5,91,77,61,29.81,29.74,16,6,25,0.00
2013-5-28,71.8,60.4,52.5,57.7,53.3,49.4,97,79,57,30.02,29.86,12,6,23,0.00
2013-5-29,76.5,59.6,50.7,54.7,50.9,47.6,95,75,43,29.93,29.84,13,6,31,0.00
2013-5-30,69.3,57.8,50.2,50.1,47.8,46.4,91,71,47,29.94,29.86,15,7,28,0.00
2013-5-31,79.4,61.3,49.2,51.4,47.7,41.9,91,65,27,29.95,29.85,12,5,22,0.00
2013-6-1,82.6,64.3,50.2,52.3,49.1,45.2,87,61,33,29.89,29.74,11,4,23,0.00
2013-6-2,70.9,60.2,51.9,56.8,52.4,48.0,92,76,60,29.83,29.76,6,2,16,0.00
2013-6-3,67.6,60.0,54.1,54.9,53.4,50.7,95,80,62,29.89,29.80,5,1,14,0.25
2013-6-4,70.6,61.4,54.7,57.4,53.5,51.2,90,76,58,29.99,29.88,7,2,14,0.00
2013-6-5,69.4,58.9,49.4,54.0,51.4,47.2,93,77,57,30.01,29.96,9,4,17,0.50
2013-6-6,72.1,59.4,53.6,54.6,52.3,51.0,92,79,54,29.98,29.90,12,3,15,0.00
2013-6-7,75.3,60.1,53.2,55.8,52.9,50.9,95,79,50,29.93,29.78,9,1,13,0.00
2013-6-8,74.9,59.8,53.5,57.2,54.2,51.8,94,83,55,29.89,29.78,11,2,15,0.00
2013-6-9,69.9,61.9,57.8,57.5,54.9,52.5,92,78,63,29.91,29.86,10,1,16,0.00
2013-6-10,76.8,64.6,57.3,55.9,53.8,51.9,83,69,45,29.95,29.88,10,2,17,0.00
2013-6-11,73.3,61.2,55.1,57.0,54.2,51.4,94,79,55,29.97,29.89,16,3,19,0.00
2013-6-12,69.4,59.4,53.5,58.5,53.6,50.3,96,82,59,30.01,29.93,11,1,16,0.00
2013-6-13,72.3,58.4,51.1,53.2,50.1,47.7,96,76,44,30.04,29.94,24,4,24,0.00
2013-6-14,75.4,60.0,50.7,55.1,51.4,47.9,94,76,44,29.95,29.83,10,2,14,0.00
2013-6-15,70.4,58.2,52.9,54.4,51.1,48.1,91,79,54,30.02,29.88,10,2,16,0.00
2013-6-16,75.6,61.4,51.4,53.4,50.8,48.5,90,70,42,30.05,29.96,11,4,20,0.00
2013-6-17,69.8,59.1,52.3,54.2,51.7,49.4,92,78,55,30.04,29.97,23,6,24,0.00
2013-6-18,68.4,57.0,51.6,53.9,51.0,47.8,97,82,55,30.01,29.94,24,6,27,0.00
2013-6-19,74.0,60.8,51.0,49.2,46.0,39.2,89,61,29,29.99,29.91,18,5,25,0.00
2013-6-20,76.7,59.5,50.1,50.5,47.2,41.2,87,66,30,29.94,29.89,21,5,31,0.00
2013-6-21,70.9,58.2,50.2,51.9,49.3,46.7,91,74,49,29.94,29.88,20,6,26,0.00
2013-6-22,74.6,59.6,45.8,54.3,48.7,43.6,94,71,43,29.93,29.83,16,2,18,0.00
2013-6-23,68.4,58.7,51.6,57.6,53.4,47.7,96,84,61,29.92,29.85,10,2,20,0.00
2013-6-24,74.7,64.1,58.9,62.8,59.3,57.5,96,85,62,29.96,29.84,9,1,14,0.01
2013-6-25,77.4,67.6,59.9,61.4,59.0,56.6,94,76,51,30.00,29.95,16,3,19,0.00
2013-6-26,78.8,67.0,57.8,61.8,59.0,56.6,97,78,54,30.00,29.93,11,4,23,0.00
2013-6-27,88.2,71.5,58.7,61.9,58.0,55.1,92,66,37,30.01,29.96,8,1,12,0.00
2013-6-28,87.6,69.3,58.3,59.8,55.9,53.3,89,66,38,29.99,29.86,16,2,20,0.00
2013-6-29,100.2,71.8,57.3,59.2,53.8,48.8,87,58,19,29.89,29.75,19,3,22,0.00
2013-6-30,79.4,67.9,57.2,57.2,54.3,52.5,85,64,42,29.80,29.71,18,3,24,0.00
2013-7-1,85.7,69.4,57.8,63.7,58.2,52.5,84,69,41,29.87,29.77,10,1,13,0.00
2013-7-2,94.7,71.3,59.2,63.4,58.6,54.7,88,68,27,29.96,29.85,10,1,16,0.00
2013-7-3,81.6,65.9,54.8,60.2,56.3,53.0,95,74,45,29.94,29.79,7,1,12,0.00
2013-7-4,79.6,66.2,56.6,60.0,57.0,54.4,94,75,48,29.82,29.75,9,1,12,0.00
2013-7-5,75.4,63.8,57.3,59.6,56.2,52.8,94,78,53,29.84,29.79,10,2,14,0.00
2013-7-6,76.1,62.2,56.7,56.8,54.0,52.1,87,76,50,29.85,29.79,10,2,14,0.00
2013-7-7,76.7,62.7,55.6,56.3,53.8,52.4,91,75,47,29.89,29.82,11,2,14,0.00
2013-7-8,78.3,63.2,56.2,56.6,54.2,52.7,92,75,46,29.99,29.89,12,2,14,0.00
2013-7-9,78.8,63.3,54.2,56.6,54.6,53.1,99,76,44,30.01,29.96,13,3,17,0.00
2013-7-10,75.3,61.0,54.2,57.5,54.8,53.1,96,82,52,30.01,29.93,11,3,16,0.00
2013-7-11,58.0,57.5,57.2,54.8,54.6,54.4,91,90,89,29.96,29.95,6,3,9,0.00
2013-7-12,74.6,61.8,53.8,58.6,54.5,52.4,96,79,53,29.96,29.89,8,3,16,0.00
2013-7-13,77.9,61.5,52.9,57.6,54.0,51.7,96,79,45,30.00,29.92,9,3,17,0.00
2013-7-14,75.8,60.5,52.9,55.1,53.1,51.8,96,79,45,29.99,29.92,11,5,22,0.00
2013-7-15,69.3,59.7,53.9,53.1,52.1,51.2,92,77,54,29.96,29.88,9,4,19,0.00
2013-7-16,70.8,61.8,55.3,54.5,52.4,50.9,88,73,53,30.03,29.91,12,3,18,0.00
2013-7-17,73.9,62.5,56.2,56.2,54.1,52.5,90,75,54,30.07,30.02,17,4,18,0.00
2013-7-18,69.8,59.8,53.9,55.3,53.3,51.9,95,81,59,30.05,29.93,19,5,22,0.00
2013-7-19,70.4,59.1,52.5,55.4,52.7,51.2,96,81,56,29.96,29.86,15,4,20,0.00
2013-7-20,76.5,60.7,53.5,56.0,53.2,51.6,94,78,48,29.90,29.80,11,2,13,0.00
2013-7-21,79.4,65.0,53.8,60.2,55.7,51.5,92,74,49,29.92,29.82,9,1,12,0.00
2013-7-22,82.6,66.5,59.8,62.0,58.2,55.0,92,76,46,29.99,29.88,10,1,12,0.00
2013-7-23,82.0,65.5,58.7,61.0,58.1,56.6,94,79,48,30.02,29.95,13,1,15,0.00
2013-7-24,74.0,62.6,56.2,58.5,56.1,54.8,96,81,54,30.00,29.92,14,3,17,0.00
2013-7-25,74.6,62.1,56.3,57.4,55.4,54.2,95,80,54,30.07,29.95,13,4,18,0.00
2013-7-26,72.8,60.9,55.6,56.9,55.0,54.0,95,82,57,30.11,30.03,14,4,18,0.00
2013-7-27,74.2,61.7,55.4,57.0,55.0,53.4,94,80,54,30.07,29.91,12,3,16,0.00
2013-7-28,75.8,63.0,56.2,59.0,55.2,53.9,92,78,52,29.93,29.86,7,1,13,0.00
2013-7-29,73.9,62.6,56.9,57.5,55.2,53.5,93,78,55,30.04,29.91,12,2,13,0.00
2013-7-30,72.8,62.9,57.0,56.9,54.9,53.4,89,76,55,30.13,30.04,11,2,14,0.00
2013-7-31,73.7,62.0,56.3,57.7,54.4,53.2,92,78,54,30.12,30.03,12,2,15,0.00
2013-8-1,73.7,60.7,49.8,57.2,52.5,47.9,95,76,51,30.06,29.93,11,4,25,0.00
2013-8-2,71.8,59.2,49.2,56.8,52.3,47.3,94,79,56,29.99,29.93,9,3,19,0.00
2013-8-3,75.1,59.8,54.5,55.8,53.1,51.9,92,80,51,30.04,29.96,11,2,15,0.00
2013-8-4,74.6,60.9,55.3,55.4,53.2,52.1,90,77,51,30.04,29.97,12,2,17,0.00
2013-8-5,71.8,60.5,53.9,55.4,53.5,51.9,94,79,56,30.03,29.96,15,3,18,0.00
2013-8-6,70.1,59.2,54.5,55.8,53.3,52.2,93,82,58,30.10,29.99,10,3,18,0.00
2013-8-7,70.4,60.2,54.5,55.8,53.9,52.2,95,81,58,30.13,30.03,9,3,20,0.00
2013-8-8,69.6,61.3,56.0,56.2,54.5,53.1,96,79,62,30.05,29.96,10,4,20,0.00
2013-8-9,76.0,62.4,56.7,56.6,54.2,52.4,89,76,50,30.01,29.93,10,3,21,0.00
2013-8-10,74.4,62.4,56.5,57.8,55.6,54.5,93,80,56,30.03,29.99,13,3,20,0.00
2013-8-11,73.3,60.0,55.3,57.5,54.9,53.7,95,84,56,30.03,29.94,16,3,20,0.00
2013-8-12,75.1,60.6,54.1,57.6,54.6,52.4,96,82,52,30.00,29.94,17,3,21,0.00
2013-8-13,78.6,62.2,53.1,58.2,54.0,51.2,97,78,42,29.99,29.90,13,2,15,0.00
2013-8-14,79.0,61.7,50.2,58.1,53.5,48.5,96,78,42,29.94,29.83,12,2,17,0.00
2013-8-15,80.9,63.7,52.3,59.0,54.2,50.6,96,75,40,29.94,29.88,9,1,13,0.01
2013-8-16,81.8,64.1,52.5,60.1,55.1,51.1,96,76,41,29.99,29.91,11,2,13,0.00
2013-8-17,82.4,64.7,56.5,59.0,56.3,54.5,94,76,42,29.98,29.85,12,2,18,0.00
2013-8-18,62.6,57.6,56.9,58.7,55.6,54.4,94,93,84,29.90,29.85,3,0,8,0.00
2013-8-25,78.6,63.7,54.7,60.5,57.3,52.5,96,82,48,29.97,29.87,10,2,19,0.00
2013-8-26,74.7,63.1,55.7,59.3,57.3,53.3,96,83,56,29.98,29.88,10,3,22,0.00
2013-8-27,77.0,62.5,54.2,59.9,55.8,51.9,96,81,49,29.90,29.82,8,2,16,0.00
2013-8-28,77.7,63.4,55.6,59.7,56.3,54.2,96,80,45,29.95,29.83,9,2,18,0.00
2013-8-29,77.0,63.6,56.6,60.0,57.3,55.5,97,82,53,30.00,29.93,9,3,21,0.00
2013-8-30,91.4,71.7,55.7,61.9,55.8,49.7,95,64,27,29.98,29.87,8,1,17,0.00
2013-8-31,89.9,72.4,61.2,60.1,56.4,50.0,84,61,27,29.94,29.87,9,1,11,0.00
2013-9-1,88.0,72.5,62.4,67.7,59.0,54.5,81,64,45,29.91,29.86,10,1,16,0.00
2013-9-2,87.4,69.9,60.5,64.7,59.8,54.9,89,72,46,29.93,29.83,18,2,19,0.00
2013-9-3,84.0,68.1,60.1,61.5,56.0,46.8,91,69,32,29.93,29.88,18,4,23,0.00
2013-9-4,80.9,65.4,55.7,59.1,56.1,53.1,92,74,45,29.97,29.89,18,3,20,0.00
2013-9-5,82.0,64.8,54.2,59.8,55.3,51.9,94,74,43,29.95,29.87,17,2,20,0.00
2013-9-6,84.1,67.7,55.9,58.5,53.8,49.4,88,65,31,29.92,29.80,12,2,14,0.00
2013-9-7,82.4,63.4,49.2,58.2,54.4,47.0,95,76,42,29.90,29.83,10,2,13,0.00
2013-9-8,74.0,61.7,54.7,59.3,55.7,53.6,96,83,54,29.89,29.78,12,2,16,0.00
2013-9-9,79.8,62.3,54.7,58.7,55.6,53.6,96,81,46,29.83,29.75,10,1,13,0.00
2013-9-10,73.5,62.3,55.9,58.6,56.1,52.7,93,81,58,29.93,29.79,9,1,15,0.00
2013-9-11,75.6,61.8,54.2,59.9,55.9,51.6,92,82,55,30.03,29.93,12,1,15,0.00
2013-9-12,73.7,62.5,52.6,59.0,56.3,50.5,95,82,59,29.97,29.86,17,3,18,0.00
2013-9-13,75.8,62.7,56.3,59.8,56.9,54.2,96,83,55,29.89,29.72,15,4,19,0.00
2013-9-21,73.0,63.2,58.4,61.7,58.7,56.1,96,86,63,29.92,29.85,8,2,18,0.01
2013-9-22,76.0,62.3,54.2,56.3,52.5,47.0,95,73,36,29.96,29.88,9,3,21,0.01
2013-9-23,92.1,72.5,57.5,51.8,48.3,43.7,77,46,21,29.93,29.82,10,4,19,0.00
2013-9-24,89.0,63.7,51.9,55.6,51.2,46.7,86,67,27,29.94,29.85,10,2,22,0.00
2013-9-25,72.0,59.3,49.9,49.8,47.5,42.2,91,67,35,29.90,29.78,15,5,32,0.00
2013-9-26,71.1,57.4,47.7,48.9,45.9,42.2,89,69,36,29.97,29.80,9,2,20,0.00
2013-9-27,84.7,60.7,42.9,46.8,40.5,30.2,93,56,15,30.05,29.96,10,2,22,0.00
2013-9-28,89.9,63.3,43.3,44.9,38.9,26.1,81,48,10,30.06,29.97,15,2,19,0.00
2013-9-29,84.0,61.8,45.8,55.0,45.5,37.3,90,60,21,30.08,29.97,15,2,24,0.00
2013-9-30,81.2,62.7,49.6,57.5,53.6,47.4,95,76,35,30.03,29.91,18,3,21,0.00
2013-10-1,72.0,61.0,52.9,58.2,53.6,49.1,96,79,52,29.95,29.88,16,3,19,0.00
2013-10-2,74.2,57.7,49.2,54.6,50.5,46.1,94,79,41,29.99,29.89,11,1,17,0.00
2013-10-3,75.4,56.2,41.9,50.6,43.6,32.0,96,67,29,29.97,29.86,15,3,22,0.00
2013-10-4,81.1,63.0,46.0,47.9,37.4,29.1,68,41,17,30.04,29.90,15,1,15,0.00
2013-10-5,92.7,65.9,45.4,38.7,32.6,18.8,62,36,7,30.12,30.03,8,1,11,0.00
2013-10-6,93.8,64.3,42.6,37.7,29.9,19.3,68,35,7,30.10,29.98,11,1,15,0.00
2013-10-7,75.4,58.7,47.3,54.1,44.0,29.3,92,61,34,30.00,29.90,14,1,19,0.00
2013-10-8,68.8,57.3,51.7,51.6,50.1,48.6,93,78,51,29.95,29.81,8,1,12,0.00
2013-10-9,60.2,54.8,46.1,50.9,47.3,42.1,87,76,54,29.82,29.68,14,2,17,0.00
2013-10-10,69.4,54.6,40.5,52.0,46.6,38.9,96,76,51,30.04,29.81,10,1,13,0.01
2013-10-11,70.3,56.5,45.7,51.4,48.3,42.5,91,75,47,30.07,29.97,13,2,15,0.00
2013-10-12,71.3,56.4,49.6,52.7,50.5,47.1,93,82,51,30.01,29.91,12,2,16,0.00
2013-10-13,68.1,56.7,51.1,52.1,50.0,48.0,91,80,53,30.03,29.94,13,2,17,0.00
2013-10-22,69.1,55.4,48.3,55.6,51.0,47.2,97,86,56,30.02,29.92,5,1,11,0.00
2013-10-23,66.8,56.3,52.0,53.6,51.6,50.3,95,85,61,30.00,29.91,6,1,12,0.00
2013-10-24,62.7,55.9,52.2,52.2,50.9,49.5,92,84,66,30.10,29.97,8,2,15,0.00
2013-10-25,71.3,58.1,51.1,56.6,52.2,49.2,95,82,53,30.16,30.02,8,2,15,0.00
2013-10-26,73.5,57.4,50.7,55.9,52.2,49.6,96,85,47,30.12,30.00,6,1,13,0.00
2013-10-27,62.1,55.1,51.9,52.7,50.6,47.8,97,85,68,30.05,29.84,8,2,16,0.00
2013-10-28,62.9,54.5,51.1,53.0,50.9,48.2,96,88,63,29.92,29.80,8,1,16,0.22
2013-10-29,65.3,54.9,48.8,56.0,51.0,48.0,98,88,62,30.05,29.92,14,1,15,0.01
2013-10-30,73.9,54.6,41.3,53.1,45.6,40.2,97,75,34,30.12,30.01,14,2,19,0.01
2013-10-31,81.2,58.8,45.5,48.3,43.9,39.2,85,62,23,30.13,30.01,11,1,14,0.00
2013-11-1,86.1,57.5,40.5,48.3,41.7,35.9,93,63,17,30.12,29.97,10,1,14,0.00
2013-11-2,71.1,53.3,39.8,54.8,45.5,36.2,92,77,39,30.02,29.90,12,2,17,0.00
2013-11-3,74.7,58.7,51.7,53.1,45.6,24.3,94,67,24,29.95,29.83,14,2,20,0.00
2013-11-4,70.8,57.9,50.8,45.1,32.3,23.8,69,40,19,30.03,29.83,13,2,17,0.00
2013-11-5,77.6,56.0,40.6,45.4,33.6,24.7,72,47,14,30.19,30.03,14,2,19,0.00
2013-11-6,81.1,54.9,38.0,39.1,33.3,24.9,78,51,13,30.23,30.13,7,0,10,0.00
2013-11-7,82.6,54.9,41.6,51.3,38.1,28.5,87,59,15,30.16,30.03,12,1,16,0.00
2013-11-8,78.6,54.0,37.6,51.0,41.2,30.9,93,69,18,30.05,29.91,6,0,11,0.00
2013-11-9,74.4,53.9,37.5,54.7,46.3,34.8,91,77,36,30.06,29.98,11,1,12,0.00
2013-11-10,71.3,55.0,44.8,52.3,49.2,42.6,95,82,49,30.14,30.05,12,1,14,0.00
2013-11-11,76.8,54.6,41.3,54.0,47.4,39.7,97,80,28,30.16,30.05,9,1,14,0.00
2013-11-12,71.8,59.1,50.8,53.1,50.8,45.4,93,76,43,30.22,30.10,13,2,18,0.00
2013-11-13,84.1,66.8,50.7,52.4,41.6,31.4,86,46,18,30.16,30.00,14,4,16,0.00
2013-11-14,68.3,57.2,51.9,53.8,51.6,46.9,96,83,58,30.05,29.83,16,5,20,0.00
2013-11-15,65.2,53.5,44.2,51.2,48.2,42.3,96,84,52,29.85,29.71,19,3,23,0.01
2013-11-16,64.2,50.0,40.9,53.1,45.2,39.3,97,85,56,29.96,29.78,7,1,12,0.00
2013-11-17,68.3,49.9,37.6,51.0,44.2,36.0,95,83,46,30.11,29.96,10,1,12,0.00
2013-11-18,68.8,50.9,41.6,55.4,46.3,39.7,96,85,49,30.17,30.08,13,1,16,0.01
2013-11-19,64.8,52.6,41.9,52.5,47.8,40.3,95,85,53,30.14,29.99,13,2,16,0.00
2013-11-20,66.8,58.2,53.5,58.5,55.0,51.3,97,90,66,30.01,29.85,5,0,9,0.18
2013-11-21,62.6,55.5,49.5,57.0,51.8,44.7,97,88,68,29.91,29.82,13,3,16,0.01
2013-11-22,70.4,57.9,50.1,44.4,41.1,37.8,78,55,31,29.98,29.88,7,1,15,0.00
2013-11-23,67.3,52.1,41.8,49.2,43.8,38.3,92,75,44,30.11,29.96,10,1,17,0.00
2013-11-24,71.8,50.4,37.5,52.4,42.4,36.2,96,78,35,30.24,30.11,10,1,15,0.00
2013-11-25,76.5,54.8,40.3,46.3,40.2,36.5,91,63,24,30.27,30.17,8,1,11,0.01
2013-11-26,76.1,54.7,40.1,46.3,39.5,34.9,85,61,24,30.21,30.05,8,0,10,0.00
2013-11-27,73.0,53.1,38.2,52.7,43.9,34.5,92,74,31,30.06,29.84,10,1,13,0.00
2013-11-28,70.4,54.8,46.8,49.9,46.3,39.6,94,76,34,30.06,29.87,6,0,11,0.00
2013-11-29,71.6,54.3,43.8,50.2,45.4,40.2,90,75,34,30.24,30.05,6,0,12,0.00
2013-11-30,79.6,49.1,37.3,47.9,39.3,35.7,95,78,21,30.25,30.10,6,0,10,0.00
2013-12-1,79.8,56.8,43.5,41.6,37.6,31.6,81,56,23,30.27,30.11,10,1,15,0.01
2013-12-2,78.3,58.0,45.2,52.6,41.3,32.9,93,59,21,30.17,29.95,13,2,17,0.00
2013-12-3,64.8,51.2,43.8,52.7,43.1,31.6,97,75,57,29.97,29.79,26,3,27,0.01
2013-12-4,59.0,43.5,32.1,33.7,26.9,19.1,83,55,21,30.07,29.90,9,1,14,0.00
2013-12-5,56.0,43.6,29.4,27.9,16.2,8.2,58,35,15,30.18,30.04,9,1,12,0.00
2013-12-6,57.3,38.9,24.2,36.3,23.2,15.2,85,57,22,30.24,30.13,10,1,13,0.00
2013-12-7,56.5,47.8,38.8,48.1,36.3,25.3,96,67,39,30.24,30.01,16,2,17,0.37
2013-12-8,51.3,41.3,32.9,29.5,26.3,22.0,73,57,33,30.29,30.16,10,1,13,0.00
2013-12-9,60.5,41.7,28.4,27.3,23.9,18.8,82,53,21,30.35,30.24,9,1,12,0.00
2013-12-10,67.8,46.8,30.7,29.8,22.6,15.7,72,42,19,30.34,30.11,10,1,15,0.00
2013-12-11,72.5,45.9,32.4,39.9,27.6,12.2,80,57,10,30.20,30.11,6,0,10,0.00
2013-12-12,65.8,43.3,26.9,46.9,32.9,23.3,89,72,21,30.26,30.15,11,1,16,0.00
2013-12-13,69.1,49.6,34.6,48.0,29.8,19.2,96,56,17,30.28,30.16,10,1,14,0.01
2013-12-14,77.7,50.6,33.4,41.0,27.2,19.9,70,45,15,30.32,30.22,6,0,11,0.00
2013-12-15,79.2,52.0,32.4,41.2,32.1,26.1,80,54,15,30.30,30.11,7,0,13,0.00
2013-12-16,85.7,57.4,41.1,37.5,32.6,24.1,71,46,11,30.16,30.05,5,0,10,0.00
2013-12-17,82.6,55.7,39.9,49.7,36.3,26.7,84,53,13,30.14,29.99,6,0,11,0.00
2013-12-18,58.7,53.8,50.4,53.9,49.5,40.7,96,86,67,30.02,29.86,12,1,12,0.00
2013-12-19,61.3,52.2,42.8,48.3,40.8,33.4,90,67,38,29.90,29.71,9,2,16,0.00
2013-12-20,64.2,47.0,32.9,39.3,28.8,21.6,86,55,21,30.01,29.88,10,1,17,0.00
2013-12-21,69.1,46.0,31.0,48.0,32.4,22.7,91,64,21,30.09,29.93,10,1,14,0.00
2013-12-22,67.1,46.3,32.9,47.8,38.8,30.8,94,78,38,30.30,30.08,6,0,9,0.00
2013-12-23,73.5,47.3,33.2,50.2,41.1,31.4,95,83,28,30.38,30.25,11,1,14,0.01
2013-12-24,42.1,40.9,40.5,39.9,39.6,39.2,95,95,95,30.27,30.26,0,0,2,0.00
2013-12-25,81.6,52.7,36.2,41.5,34.0,29.4,78,54,16,30.24,30.12,6,1,14,0.00
2013-12-26,84.5,51.4,31.8,35.0,25.2,11.5,81,48,8,30.21,30.06,4,0,11,0.00
2013-12-27,83.8,49.8,29.7,40.4,26.6,9.6,70,47,6,30.20,30.05,6,1,15,0.00
2013-12-28,70.6,53.9,34.4,46.5,31.6,18.1,76,47,17,30.08,29.92,13,2,18,0.00
2013-12-29,82.2,51.9,35.3,46.1,28.4,13.8,74,48,8,30.18,30.02,7,0,11,0.00
2013-12-30,76.0,47.6,30.7,32.3,25.2,19.5,78,49,13,30.27,30.17,6,0,9,0.00
2013-12-31,67.3,47.8,32.4,48.9,33.4,21.0,89,60,25,30.25,30.08,13,2,16,0.00
2014-1-1,73.7,48.5,33.5,49.4,38.3,28.1,94,73,19,30.18,30.05,9,1,13,0.00
2014-1-2,79.0,50.8,34.9,43.0,35.1,26.5,91,62,16,30.13,30.00,11,1,13,0.00